Flag for Brazil Weather past 2 weeks in Porto Acre, Acre, Brazil

Now
73 °F

Partly cloudy.


Feels Like: 70 °F
Forecast: 71 / 85 °F
Wind: 1 mph from Southwest

Location: Rio Branco Airport

Current Time: Oct 25, 2014 at 2:08:12 AM

Latest Report: Oct 25, 2014 at 1:00 AM


Visibility: N/A

Pressure: 29.83 "Hg

Humidity: 94%

Dew point: 72 °F

Location of Porto AcreLocation

Historic Weather in Porto Acre — Graph

°F

Porto Acre temperature yesterday

Maximum temperature yesterday: 84 °F (at 1:00 PM)
Minimum temperature yesterday: 73 °F (at 2:00 AM)
Average temperature yesterday: 77 °F

Past Weeks' High & Low Weather Summary

 TemperatureHumidityPressure
High93 °F (Oct 18, 1:00 PM)100% (Oct 10, 6:00 AM)30.04 "Hg (Oct 10, 6:00 AM)
Low66 °F (Oct 16, 5:00 AM)39% (Oct 18, 1:00 PM)29.71 "Hg (Oct 23, 3:00 PM)
Average79 °F76%29.89 "Hg
* Reported Oct 10 1:00 AM — Oct 25 1:00 AM, Porto Acre, Weather by CustomWeather, © 2014

Note: Actual official high and low records may vary slightly from our data, if they occured in-between our weather recording intervals... More about our weather records

Advertising

Porto Acre weather history for previous 24 hours

 ConditionsComfort  
Time TempWeatherWind HumidityBarometerVisibility
1:00 AM
Oct 25
73 °FPartly cloudy.1 mph94%29.83 "HgN/A
12:00 AM73 °FPartly cloudy.3 mph94%29.86 "HgN/A
11:00 PM
Oct 24
75 °FPassing clouds.3 mph89%29.83 "HgN/A
10:00 PM75 °FPartly cloudy.3 mph94%29.83 "HgN/A
9:00 PM75 °FThunderstorms. Partly cloudy.3 mph94%29.83 "HgN/A
8:00 PM75 °FThunderstorms. Partly cloudy.3 mph94%29.80 "HgN/A
7:00 PM77 °FThunderstorms. Partly cloudy.3 mph89%29.80 "HgN/A
6:00 PM77 °FBroken clouds.5 mph89%29.77 "HgN/A
5:00 PM79 °FBroken clouds.No wind84%29.77 "HgN/A
4:00 PM81 °FBroken clouds.No wind79%29.74 "HgN/A
3:00 PM81 °FBroken clouds.No wind79%29.71 "HgN/A
2:00 PM82 °FPartly sunny.2 mph70%29.74 "HgN/A
1:00 PM84 °FBroken clouds.2 mph70%29.77 "HgN/A
12:00 PM82 °FBroken clouds.12 mph70%29.80 "HgN/A
11:00 AM82 °FScattered clouds.12 mph70%29.86 "HgN/A
10:00 AM81 °FBroken clouds.13 mph74%29.92 "HgN/A
9:00 AM79 °FPartly sunny.9 mph79%29.92 "HgN/A
8:00 AM79 °FBroken clouds.6 mph79%29.92 "HgN/A
7:00 AM75 °FScattered clouds.12 mph89%29.89 "HgN/A
6:00 AM73 °FPartly cloudy.2 mph94%29.86 "HgN/A
5:00 AM73 °FPassing clouds.2 mph89%29.83 "HgN/A
4:00 AM73 °FPassing clouds.5 mph89%29.80 "HgN/A
3:00 AM73 °FPassing clouds.7 mph89%29.80 "HgN/A
2:00 AM73 °FLight rain. Partly cloudy.9 mph94%29.80 "Hg5 mi
Weather by CustomWeather, © 2014

See weather overviewHow to use our weather pages